Location: Unspecified
(0.0000°N, 0.0000°E)
Time: 18:55:58
(UTC+00:00)

STARLINK-34048 - Pass Details

Date: 23 June 2025
Orbit: 482 x 484 km, 43.0° (Epoch: 20 July)

Event Time Altitude Azimuth Distance (km) Brightness Sun altitude
Rises 18:40:46 0° 222° (SW) 2,527 7.3 -8.8°
Reaches altitude 10° 18:42:57 10° 221° (SW) 1,647 6.3 -9.3°
Maximum altitude 18:46:41 77° 135° (SE) 492 3.2 -10.2°
Drops below altitude 10° 18:50:25 10° 48° (NE) 1,642 5.8 -11.0°
Sets 18:52:36 0° 47° (NE) 2,518 6.8 -11.5°
